星链-6094 (STARLINK-6094 )

导读 | 星芒AI

STARLINK-6094 是SpaceX星链(Starlink)卫星互联网项目中的一颗低轨通信卫星。它属于星链计划的第60批次发射任务,旨在为全球用户提供高速、低延迟的互联网服务。该卫星运行在约550公里高的近地轨道,采用先进通信技术,支持宽带数据传输。作为星链星座的一部分,STARLINK-6094 有助于扩大网络覆盖范围,特别是在偏远和网络基础设施薄弱的地区。

基本信息
目录编号:
56122
目录名称:
STARLINK-6094
国际标识:
2023-046AF
轨道中心:
EARTH
卫星名称:
星链-6094
卫星全名:
星链-6094 (STARLINK-6094 )
卫星状态:
在轨 (已飞行951 天)
发射日期:
2023-03-29 UTC
国别 :
美国 (US)
星等 :
--
轨道信息
数据来源 国际轨道数据 AOE轨道数据
星历时间 2025-11-04T02:16:01+0800
6小时前
查看轨道信息
2025-10-30T10:00:00+0800
4天前
查看轨道信息
半长轴 6937.252km 6937.178km
偏心率 0.0001122 0.0000505
轨道倾角 43.003° 43.002°
近地点辐角 256.627° 306.533°
升交点赤经 122.812° 148.231°
平近点角 103.445° 281.825°
近地点 558.338km 558.692km
远地点 559.896km 559.394km
周期 95.839分钟 95.837分钟
每日圈数 15.025247 15.025486
详细信息
固有亮度:
5
最大亮度:
2.5
卫星平台:
Starlink v1.5
覆盖范围:
全球
运营商:
太空探索技术公司
运营商所在国:
美国
制造商(研发单位):
太空探索技术公司
制造商所在国:
美国
使用方式:
暂无
卫星简介
星链(Starlink)计划是由太空探索技术公司(SpaceX)提出的一个巨型低轨卫星互联网星座项目,计划在2019年至2024年间在太空搭建由约1.2万颗卫星组成的“星链”网络,其中1584颗将部署在地球上空550千米处的近地轨道,并从2020年开始工作。该卫星仍在工作。
2D轨道图
3D轨道图
轨道高度分析图
轨道倾角分析图
轨道综合分析图
查看轨道综合分析图